CSA3CZ LIPZ-LKPR

Flight info

Callsign CSA3CZ
Flight time N/A
Altitude 30000
Route ROKIB DCT MALUG/N0450F310 DCT ERANI/N0452F300 DCT SIMBA Y700 NENUM/N0447F310 Z39 DOLUP DCT APRAQ
Aircraft A320/M-SDE3FGHIRWY/LB1

Departure

Time 2026-04-28 11:14
Airport Venice Marco Polo Airport (LIPZ)

Arrival

Time N/A
Airport Václav Havel Airport Prague (LKPR)
Time Latitude Longitude Altitude Speed Heading
2026-04-28 11:02 45.50660 12.34143 16 ft 0 kts 229°
2026-04-28 11:08 45.50671 12.34161 16 ft 4 kts 229°
2026-04-28 11:08 45.50689 12.34190 20 ft 4 kts 226°
2026-04-28 11:08 45.50704 12.34210 18 ft 2 kts 209°
2026-04-28 11:08 45.50714 12.34216 16 ft 2 kts 158°
2026-04-28 11:09 45.50723 12.34208 19 ft 2 kts 135°
2026-04-28 11:09 45.50729 12.34201 18 ft 0 kts 135°
2026-04-28 11:11 45.50715 12.34220 15 ft 5 kts 135°
2026-04-28 11:11 45.50690 12.34255 15 ft 5 kts 134°
2026-04-28 11:11 45.50653 12.34314 15 ft 13 kts 140°
2026-04-28 11:11 45.50520 12.34341 16 ft 25 kts 177°
2026-04-28 11:12 45.50345 12.34353 16 ft 25 kts 178°
2026-04-28 11:12 45.50163 12.34355 15 ft 29 kts 195°
2026-04-28 11:12 45.49974 12.34152 13 ft 38 kts 221°
2026-04-28 11:12 45.49782 12.33904 14 ft 37 kts 222°
2026-04-28 11:13 45.49631 12.33713 16 ft 20 kts 222°
2026-04-28 11:13 45.49520 12.33624 16 ft 18 kts 158°
2026-04-28 11:13 45.49423 12.33742 15 ft 18 kts 111°
2026-04-28 11:13 45.49503 12.33889 14 ft 31 kts 43°
2026-04-28 11:14 45.49850 12.34338 12 ft 101 kts 42°
2026-04-28 11:14 45.50512 12.35187 14 ft 154 kts 41°
2026-04-28 11:14 45.51356 12.36284 393 ft 166 kts 47°
2026-04-28 11:14 45.52186 12.37446 1010 ft 169 kts 46°
2026-04-28 11:15 45.53020 12.38629 1712 ft 171 kts 51°
2026-04-28 11:15 45.53558 12.40225 2173 ft 187 kts 82°
2026-04-28 11:15 45.53551 12.42172 2532 ft 209 kts 99°
2026-04-28 11:15 45.53328 12.44249 3264 ft 211 kts 99°
2026-04-28 11:16 45.53275 12.46407 3745 ft 230 kts 77°
2026-04-28 11:16 45.54071 12.48474 4088 ft 253 kts 41°
2026-04-28 11:16 45.55687 12.49557 4626 ft 266 kts
2026-04-28 11:16 45.57549 12.49803 5447 ft 272 kts
2026-04-28 11:17 45.59441 12.49962 6390 ft 274 kts
2026-04-28 11:17 45.61359 12.50098 7253 ft 278 kts
2026-04-28 11:17 45.63303 12.50235 8138 ft 282 kts
2026-04-28 11:17 45.65272 12.50383 8982 ft 285 kts
2026-04-28 11:18 45.67270 12.50544 9818 ft 290 kts
2026-04-28 11:18 45.69280 12.50710 10487 ft 300 kts
2026-04-28 11:18 45.71468 12.50893 10841 ft 319 kts
2026-04-28 11:18 45.73689 12.51086 11653 ft 321 kts
2026-04-28 11:19 45.75925 12.51286 12436 ft 323 kts
2026-04-28 11:19 45.78151 12.51489 13194 ft 326 kts
2026-04-28 11:19 45.80428 12.51694 13938 ft 329 kts
2026-04-28 11:19 45.82723 12.51897 14598 ft 332 kts
2026-04-28 11:20 45.85064 12.52103 14963 ft 346 kts
2026-04-28 11:20 45.87535 12.52319 15087 ft 365 kts
2026-04-28 11:20 45.90133 12.52545 15223 ft 383 kts
2026-04-28 11:20 45.92846 12.52780 15349 ft 399 kts
2026-04-28 11:21 45.95675 12.53028 15526 ft 413 kts
2026-04-28 11:21 45.98560 12.53287 15930 ft 418 kts
2026-04-28 11:21 46.01478 12.53549 16399 ft 421 kts
2026-04-28 11:21 46.04415 12.53812 16879 ft 424 kts
2026-04-28 11:22 46.05409 12.53901 17043 ft 425 kts